Time,TemperatureF,DewpointF,PressureIn,WindDirection,WindDirectionDegrees,WindSpeedMPH,WindSpeedGustMPH,Humidity,HourlyPrecipIn,Conditions,Clouds,dailyrainin,SolarRadiationWatts/m^2,SoftwareType,DateUTC
2013-01-31 06:02:00,33.0,28.0,-100.00,NNW,335,1.0,9.0,83,0.00,,,0.00,0.000000,,2013-01-31 14:02:00,
2013-01-31 06:11:00,33.0,28.0,-100.00,NNW,335,1.0,9.0,83,0.00,,,0.00,0.000000,,2013-01-31 14:11:00,
2013-01-31 06:21:00,33.0,28.0,-100.00,NNW,335,1.0,9.0,83,0.00,,,0.00,0.000000,,2013-01-31 14:21:00,
2013-01-31 06:31:00,33.0,28.0,-100.00,NNW,335,1.0,9.0,83,0.00,,,0.00,0.000000,,2013-01-31 14:31:00,
2013-01-31 06:52:00,35.0,28.0,-100.00,NNW,336,3.0,13.0,75,0.00,,,0.00,0.000000,,2013-01-31 14:52:00,
2013-01-31 07:03:00,35.0,28.0,-100.00,NNW,336,3.0,13.0,75,0.00,,,0.00,0.000000,,2013-01-31 15:03:00,
2013-01-31 07:12:00,35.0,28.0,-100.00,NNW,336,3.0,13.0,75,0.00,,,0.00,0.000000,,2013-01-31 15:12:00,
2013-01-31 07:22:00,35.0,28.0,-100.00,NNW,336,3.0,13.0,75,0.00,,,0.00,0.000000,,2013-01-31 15:22:00,
2013-01-31 07:32:00,35.0,28.0,-100.00,NNW,336,3.0,13.0,75,0.00,,,0.00,0.000000,,2013-01-31 15:32:00,
2013-01-31 07:52:00,36.0,26.0,-100.00,NNW,335,3.0,20.0,68,0.00,,,0.00,0.000000,,2013-01-31 15:52:00,
2013-01-31 08:03:00,36.0,26.0,-100.00,NNW,335,3.0,20.0,68,0.00,,,0.00,0.000000,,2013-01-31 16:03:00,
2013-01-31 08:12:00,36.0,26.0,-100.00,NNW,335,3.0,20.0,68,0.00,,,0.00,0.000000,,2013-01-31 16:12:00,
2013-01-31 08:21:00,36.0,26.0,-100.00,NNW,335,3.0,20.0,68,0.00,,,0.00,0.000000,,2013-01-31 16:21:00,
2013-01-31 08:32:00,36.0,26.0,-100.00,NNW,335,3.0,20.0,68,0.00,,,0.00,0.000000,,2013-01-31 16:32:00,
2013-01-31 08:52:00,35.0,27.0,-100.00,NNW,335,2.0,12.0,72,0.00,,,0.00,7.000000,,2013-01-31 16:52:00,
2013-01-31 09:02:00,35.0,27.0,-100.00,NNW,335,2.0,12.0,72,0.00,,,0.00,7.000000,,2013-01-31 17:02:00,
2013-01-31 09:12:00,35.0,27.0,-100.00,NNW,335,2.0,12.0,72,0.00,,,0.00,7.000000,,2013-01-31 17:12:00,
2013-01-31 09:22:00,35.0,27.0,-100.00,NNW,335,2.0,12.0,72,0.00,,,0.00,7.000000,,2013-01-31 17:22:00,
2013-01-31 09:31:00,35.0,27.0,-100.00,NNW,335,2.0,12.0,72,0.00,,,0.00,7.000000,,2013-01-31 17:31:00,
2013-01-31 09:53:00,35.0,28.0,-100.00,NNW,336,1.0,5.0,74,0.00,,,0.00,27.000000,,2013-01-31 17:53:00,
2013-01-31 10:02:00,35.0,28.0,-100.00,NNW,336,1.0,5.0,74,0.00,,,0.00,27.000000,,2013-01-31 18:02:00,
2013-01-31 10:12:00,35.0,28.0,-100.00,NNW,336,1.0,5.0,74,0.00,,,0.00,27.000000,,2013-01-31 18:12:00,
2013-01-31 10:21:00,35.0,28.0,-100.00,NNW,336,1.0,5.0,74,0.00,,,0.00,27.000000,,2013-01-31 18:21:00,
2013-01-31 10:31:00,35.0,28.0,-100.00,NNW,336,1.0,5.0,74,0.00,,,0.00,27.000000,,2013-01-31 18:31:00,
2013-01-31 10:52:00,36.0,25.0,-100.00,NNW,336,4.0,11.0,63,0.00,,,0.00,60.000000,,2013-01-31 18:52:00,
2013-01-31 11:02:00,36.0,25.0,-100.00,NNW,336,4.0,11.0,63,0.00,,,0.00,60.000000,,2013-01-31 19:02:00,
2013-01-31 11:52:00,38.0,25.0,-100.00,NNW,336,2.0,10.0,60,0.00,,,0.00,89.000000,,2013-01-31 19:52:00,
2013-01-31 12:02:00,38.0,25.0,-100.00,NNW,336,2.0,10.0,60,0.00,,,0.00,89.000000,,2013-01-31 20:02:00,
2013-01-31 12:52:00,38.0,27.0,-100.00,NNW,336,1.0,5.0,63,0.00,,,0.00,119.000000,,2013-01-31 20:52:00,
2013-01-31 13:02:00,38.0,27.0,-100.00,NNW,336,1.0,5.0,63,0.00,,,0.00,119.000000,,2013-01-31 21:02:00,
2013-01-31 13:12:00,38.0,27.0,-100.00,NNW,336,1.0,5.0,63,0.00,,,0.00,119.000000,,2013-01-31 21:12:00,
2013-01-31 13:21:00,38.0,27.0,-100.00,NNW,336,1.0,5.0,63,0.00,,,0.00,119.000000,,2013-01-31 21:21:00,
2013-01-31 13:31:00,38.0,27.0,-100.00,NNW,336,1.0,5.0,63,0.00,,,0.00,119.000000,,2013-01-31 21:31:00,
2013-01-31 13:52:00,40.0,27.0,-100.00,NNW,335,5.0,11.0,60,0.00,,,0.00,140.000000,,2013-01-31 21:52:00,
2013-01-31 14:02:00,40.0,27.0,-100.00,NNW,335,5.0,11.0,60,0.00,,,0.00,140.000000,,2013-01-31 22:02:00,
2013-01-31 14:11:00,40.0,27.0,-100.00,NNW,335,5.0,11.0,60,0.00,,,0.00,140.000000,,2013-01-31 22:11:00,
2013-01-31 14:22:00,40.0,27.0,-100.00,NNW,335,5.0,11.0,60,0.00,,,0.00,140.000000,,2013-01-31 22:22:00,
2013-01-31 14:32:00,40.0,27.0,-100.00,NNW,335,5.0,11.0,60,0.00,,,0.00,140.000000,,2013-01-31 22:32:00,
2013-01-31 14:52:00,38.0,28.0,-100.00,NNW,336,1.0,6.0,66,0.00,,,0.00,78.000000,,2013-01-31 22:52:00,
2013-01-31 15:02:00,38.0,28.0,-100.00,NNW,336,1.0,6.0,66,0.00,,,0.00,78.000000,,2013-01-31 23:02:00,
2013-01-31 15:12:00,38.0,28.0,-100.00,NNW,336,1.0,6.0,66,0.00,,,0.00,78.000000,,2013-01-31 23:12:00,
2013-01-31 15:21:00,38.0,28.0,-100.00,NNW,336,1.0,6.0,66,0.00,,,0.00,78.000000,,2013-01-31 23:21:00,
2013-01-31 15:31:00,38.0,28.0,-100.00,NNW,336,1.0,6.0,66,0.00,,,0.00,78.000000,,2013-01-31 23:31:00,
2013-01-31 15:52:00,39.0,28.0,-100.00,NNW,336,3.0,11.0,64,0.00,,,0.00,157.000000,,2013-01-31 23:52:00,
2013-01-31 16:01:00,39.0,28.0,-100.00,NNW,336,3.0,11.0,64,0.00,,,0.00,157.000000,,2013-02-01 00:01:00,
2013-01-31 16:11:00,39.0,28.0,-100.00,NNW,336,3.0,11.0,64,0.00,,,0.00,157.000000,,2013-02-01 00:11:00,
2013-01-31 16:21:00,39.0,28.0,-100.00,NNW,336,3.0,11.0,64,0.00,,,0.00,157.000000,,2013-02-01 00:21:00,
2013-01-31 16:31:00,39.0,28.0,-100.00,NNW,336,3.0,11.0,64,0.00,,,0.00,157.000000,,2013-02-01 00:31:00,
2013-01-31 16:52:00,37.0,28.0,-100.00,NNW,336,2.0,7.0,71,0.00,,,0.00,35.000000,,2013-02-01 00:52:00,
2013-01-31 17:01:00,37.0,28.0,-100.00,NNW,336,2.0,7.0,71,0.00,,,0.00,35.000000,,2013-02-01 01:01:00,
2013-01-31 17:11:00,37.0,28.0,-100.00,NNW,336,2.0,7.0,71,0.00,,,0.00,35.000000,,2013-02-01 01:11:00,
2013-01-31 17:21:00,37.0,28.0,-100.00,NNW,336,2.0,7.0,71,0.00,,,0.00,35.000000,,2013-02-01 01:21:00,
2013-01-31 17:31:00,37.0,28.0,-100.00,NNW,336,2.0,7.0,71,0.00,,,0.00,35.000000,,2013-02-01 01:31:00,
2013-01-31 17:52:00,36.0,29.0,-100.00,NNW,335,4.0,16.0,74,0.00,,,0.00,5.000000,,2013-02-01 01:52:00,
2013-01-31 18:01:00,36.0,29.0,-100.00,NNW,335,4.0,16.0,74,0.00,,,0.00,5.000000,,2013-02-01 02:01:00,
2013-01-31 18:11:00,36.0,29.0,-100.00,NNW,335,4.0,16.0,74,0.00,,,0.00,5.000000,,2013-02-01 02:11:00,
2013-01-31 18:21:00,36.0,29.0,-100.00,NNW,335,4.0,16.0,74,0.00,,,0.00,5.000000,,2013-02-01 02:21:00,
2013-01-31 18:31:00,36.0,29.0,-100.00,NNW,335,4.0,16.0,74,0.00,,,0.00,5.000000,,2013-02-01 02:31:00,
2013-01-31 18:52:00,35.0,29.0,-100.00,NNW,335,3.0,10.0,77,0.00,,,0.00,0.000000,,2013-02-01 02:52:00,
2013-01-31 19:01:00,35.0,29.0,-100.00,NNW,335,3.0,10.0,77,0.00,,,0.00,0.000000,,2013-02-01 03:01:00,
2013-01-31 19:11:00,35.0,29.0,-100.00,NNW,335,3.0,10.0,77,0.00,,,0.00,0.000000,,2013-02-01 03:11:00,
2013-01-31 19:21:00,35.0,29.0,-100.00,NNW,335,3.0,10.0,77,0.00,,,0.00,0.000000,,2013-02-01 03:21:00,
2013-01-31 19:32:00,35.0,29.0,-100.00,NNW,335,3.0,10.0,77,0.00,,,0.00,0.000000,,2013-02-01 03:32:00,
2013-01-31 19:52:00,33.0,28.0,-100.00,NNW,336,2.0,6.0,83,0.00,,,0.00,0.000000,,2013-02-01 03:52:00,
2013-01-31 20:02:00,33.0,28.0,-100.00,NNW,336,2.0,6.0,83,0.00,,,0.00,0.000000,,2013-02-01 04:02:00,
2013-01-31 20:11:00,33.0,28.0,-100.00,NNW,336,2.0,6.0,83,0.00,,,0.00,0.000000,,2013-02-01 04:11:00,
2013-01-31 20:21:00,33.0,28.0,-100.00,NNW,336,2.0,6.0,83,0.00,,,0.00,0.000000,,2013-02-01 04:21:00,
2013-01-31 20:31:00,33.0,28.0,-100.00,NNW,336,2.0,6.0,83,0.00,,,0.00,0.000000,,2013-02-01 04:31:00,
2013-01-31 20:52:00,32.0,27.0,-100.00,NNW,336,3.0,8.0,80,0.00,,,0.00,0.000000,,2013-02-01 04:52:00,
2013-01-31 21:03:00,32.0,27.0,-100.00,NNW,336,3.0,8.0,80,0.00,,,0.00,0.000000,,2013-02-01 05:03:00,
2013-01-31 21:11:00,32.0,27.0,-100.00,NNW,336,3.0,8.0,80,0.00,,,0.00,0.000000,,2013-02-01 05:11:00,
2013-01-31 21:22:00,32.0,27.0,-100.00,NNW,336,3.0,8.0,80,0.00,,,0.00,0.000000,,2013-02-01 05:22:00,
2013-01-31 21:31:00,32.0,27.0,-100.00,NNW,336,3.0,8.0,80,0.00,,,0.00,0.000000,,2013-02-01 05:31:00,
2013-01-31 21:52:00,33.0,26.0,-100.00,NNW,335,2.0,12.0,75,0.00,,,0.00,0.000000,,2013-02-01 05:52:00,
2013-01-31 22:02:00,33.0,26.0,-100.00,NNW,335,2.0,12.0,75,0.00,,,0.00,0.000000,,2013-02-01 06:02:00,
2013-01-31 22:11:00,33.0,26.0,-100.00,NNW,335,2.0,12.0,75,0.00,,,0.00,0.000000,,2013-02-01 06:11:00,
2013-01-31 22:21:00,33.0,26.0,-100.00,NNW,335,2.0,12.0,75,0.00,,,0.00,0.000000,,2013-02-01 06:21:00,
2013-01-31 22:31:00,33.0,26.0,-100.00,NNW,335,2.0,12.0,75,0.00,,,0.00,0.000000,,2013-02-01 06:31:00,
2013-01-31 22:52:00,33.0,23.0,-100.00,NNW,335,3.0,11.0,66,0.00,,,0.00,0.000000,,2013-02-01 06:52:00,
2013-01-31 23:01:00,33.0,23.0,-100.00,NNW,335,3.0,11.0,66,0.00,,,0.00,0.000000,,2013-02-01 07:01:00,
2013-01-31 23:12:00,33.0,23.0,-100.00,NNW,335,3.0,11.0,66,0.00,,,0.00,0.000000,,2013-02-01 07:12:00,
2013-01-31 23:21:00,33.0,23.0,-100.00,NNW,335,3.0,11.0,66,0.00,,,0.00,0.000000,,2013-02-01 07:21:00,
2013-01-31 23:31:00,33.0,23.0,-100.00,NNW,335,3.0,11.0,66,0.00,,,0.00,0.000000,,2013-02-01 07:31:00,
2013-01-31 23:52:00,30.0,24.0,-100.00,NNW,336,1.0,7.0,79,0.00,,,0.00,0.000000,,2013-02-01 07:52:00,